Theta_e
312 303 301 301 303 305 307 307 306 307 308 307 305 304 304 303 303 306 307 309 312 308 305 307 306 307 308 310 313 314 315 315 315 315 316 316 317 318 318 317 317 319 319 321 322 322 321 321 323 326 325 324 324 324 324 323 324 324 322 324 324 326 327 327 325 324 324 322 322 325 321 326 324 324 326 326 326 327 324 326 324 324 325 325 327 328
311 304 302 304 306 308 307 308 308 307 307 307 304 303 303 305 302 307 307 310 311 308 305 307 306 307 308 311 312 314 314 312 314 314 315 315 318 319 317 317 318 318 319 320 320 321 322 321 322 322 322 322 320 322 323 323 323 323 324 324 325 328 328 329 329 328 328 325 323 322 321 319 322 322 324 323 328 326 325 325 326 326 324 323 324 325
304 301 305 307 309 310 310 308 307 307 305 306 304 303 300 302 306 308 308 309 310 308 305 307 305 306 308 310 312 313 313 314 316 316 316 317 316 317 317 317 317 318 319 319 320 321 319 319 319 320 322 321 320 322 322 322 324 324 324 325 326 326 326 325 327 329 328 328 329 328 324 321 321 325 324 327 330 328 326 325 324 324 325 322 320 321
299 303 306 309 309 307 306 305 308 306 306 303 303 302 301 303 303 298 306 309 309 308 304 306 304 306 309 311 311 314 313 315 318 319 319 319 317 317 317 318 318 318 317 318 319 319 319 319 319 318 318 322 321 322 322 323 323 323 325 325 326 327 327 327 326 326 326 326 327 329 330 327 324 321 323 323 325 323 324 323 324 321 325 322 320 320
301 305 310 310 309 307 305 305 305 304 301 304 305 304 302 302 303 305 304 307 307 309 310 306 303 304 307 307 307 312 315 316 317 318 318 318 319 319 320 319 320 318 318 318 319 320 319 317 318 318 319 321 320 317 320 322 324 321 323 324 325 325 327 327 328 326 327 326 327 326 327 329 326 325 326 320 322 323 323 322 326 321 323 322 320 322
304 308 308 305 306 306 305 303 303 303 301 302 305 305 305 305 306 306 306 307 303 303 306 305 296 296 304 306 307 310 313 312 315 315 315 316 317 318 317 318 319 319 320 319 319 318 318 317 319 321 321 321 319 321 322 323 324 324 323 323 326 327 328 325 326 328 327 326 325 326 323 321 323 321 319 321 320 318 324 320 324 329 323 321 322 320
305 308 307 305 306 305 304 303 304 307 301 301 302 307 307 306 306 306 305 302 296 294 303 308 297 292 304 303 306 309 310 311 314 314 314 315 316 315 317 317 319 318 318 320 319 318 317 317 317 319 320 321 319 320 322 322 325 321 322 323 324 325 326 326 325 326 328 325 325 323 321 322 322 318 324 324 324 324 318 325 321 324 323 319 319 323
307 307 306 305 305 304 303 302 304 305 302 301 307 308 308 306 305 304 306 304 301 306 305 306 303 296 296 303 307 309 308 309 310 312 314 314 315 315 317 317 320 319 318 318 318 319 319 318 319 318 319 320 321 323 320 324 324 324 324 325 325 325 325 324 325 324 328 325 326 324 322 321 319 321 319 324 320 328 320 326 320 322 322 319 319 320
306 305 305 305 304 304 302 304 307 306 303 303 307 309 305 307 306 307 305 303 302 301 298 302 303 296 295 301 307 308 305 306 308 310 312 313 315 315 316 317 319 318 318 318 318 318 319 319 319 320 318 321 322 321 325 324 321 325 324 326 326 326 327 327 326 326 324 327 327 324 322 323 322 320 321 320 321 325 320 327 323 324 326 324 326 322
307 305 307 307 305 302 306 308 308 306 304 307 309 309 309 308 307 307 304 302 302 299 292 297 303 293 294 302 303 306 304 305 307 309 311 313 314 315 316 318 319 318 318 318 318 319 320 319 320 320 319 321 322 324 325 325 325 324 328 326 325 324 326 327 328 327 325 325 328 324 325 321 323 321 324 321 321 322 321 322 321 325 324 324 325 325
307 312 312 309 306 307 308 308 308 308 309 310 308 305 305 306 304 305 304 303 299 291 295 300 302 300 292 298 300 301 303 307 308 309 312 314 315 315 317 317 317 318 317 318 318 319 319 319 320 318 320 321 323 324 324 326 321 325 327 326 324 325 326 326 327 327 325 327 323 323 321 321 320 319 319 321 320 319 321 320 319 322 322 324 322 327
309 309 307 308 311 309 310 307 310 310 309 307 305 304 304 302 304 303 303 302 293 291 297 303 302 302 290 297 304 307 309 311 310 309 310 312 314 315 317 317 318 319 317 317 318 317 318 318 318 318 319 320 321 323 324 325 322 325 325 327 325 326 327 327 328 328 326 326 324 325 323 321 321 319 317 317 317 314 315 318 320 322 321 322 321 325
304 304 307 309 312 311 308 312 306 307 306 306 305 303 296 293 296 290 295 289 290 290 298 302 302 298 297 300 305 308 309 310 312 312 311 312 313 315 316 317 317 318 318 317 317 316 316 315 317 318 318 320 320 322 322 323 326 326 325 326 325 324 326 327 327 329 328 326 325 325 324 323 324 321 319 316 316 318 319 320 320 320 320 321 319 322
301 307 307 307 310 311 309 302 302 302 305 305 302 301 295 290 288 286 290 293 295 298 301 301 304 296 301 303 307 307 310 312 313 314 314 314 315 315 316 317 318 318 318 317 317 317 315 315 316 318 318 317 320 321 323 323 326 326 324 325 324 323 327 326 328 328 327 327 326 327 327 324 322 323 322 322 318 317 322 322 321 320 322 320 320 318
293 297 303 305 303 310 309 306 305 304 304 303 307 301 298 296 291 286 288 286 289 293 299 303 296 293 295 298 310 310 312 314 314 315 315 316 317 317 317 318 318 317 318 317 317 316 316 317 318 319 319 320 318 322 323 323 324 323 322 325 322 323 326 327 328 329 323 328 328 327 327 325 323 326 326 324 323 324 320 322 318 322 323 322 321 319
297 297 304 307 308 309 307 310 310 306 305 307 307 306 300 297 303 292 295 295 294 293 293 296 294 302 301 308 311 313 313 313 314 315 315 316 317 316 316 316 317 318 317 318 317 317 318 319 319 320 321 320 319 322 323 320 323 326 323 324 325 323 326 326 327 327 331 325 329 329 328 326 325 329 327 325 325 325 324 325 322 323 323 322 323 323
299 297 306 307 308 308 308 310 310 310 297 303 304 299 301 305 304 295 296 301 300 294 290 297 298 301 305 306 309 309 311 311 312 313 313 315 315 316 315 316 316 317 317 318 316 316 317 317 318 318 319 321 319 318 319 324 323 326 326 325 323 326 326 327 328 323 328 328 327 328 330 327 327 325 323 324 323 326 325 324 322 325 323 325 324 322
296 297 306 304 303 308 310 310 310 310 309 305 298 303 308 309 305 299 290 292 290 289 290 298 295 296 298 291 307 307 308 310 310 312 314 315 315 314 315 316 317 317 318 317 316 317 316 317 317 317 317 319 321 320 320 323 325 326 327 324 323 323 325 326 328 331 331 326 327 328 327 325 327 326 321 326 323 321 325 323 326 325 323 325 322 323
304 296 301 304 307 307 309 308 306 310 311 305 302 309 299 294 294 300 295 287 286 287 288 294 297 297 299 298 303 304 305 308 310 312 313 314 314 315 316 317 318 319 318 317 317 316 316 317 318 320 317 317 321 325 319 320 323 321 324 320 324 326 328 329 328 331 333 330 328 327 327 325 327 327 327 327 325 327 322 321 324 324 324 326 324 324
305 295 299 305 304 306 306 305 297 303 308 309 308 304 308 305 299 297 293 297 295 288 288 290 294 291 302 302 305 304 307 309 309 311 313 313 315 315 316 317 315 317 319 317 317 316 316 316 317 318 319 316 316 316 318 320 322 324 322 323 328 329 330 326 327 330 329 328 331 330 329 329 322 324 324 327 325 320 319 319 318 321 325 325 322 324
304 307 292 302 305 304 297 302 300 301 301 301 302 301 302 304 306 303 302 297 294 289 289 288 288 295 303 308 307 308 309 310 311 310 316 313 315 316 317 317 316 317 317 318 318 317 316 318 318 317 319 317 316 317 322 321 322 324 323 326 326 328 328 329 329 329 328 329 329 331 329 330 327 328 328 321 324 327 328 328 325 326 324 320 323 323
300 301 293 300 300 298 301 306 305 304 303 302 300 300 302 303 296 293 291 302 299 295 289 289 288 297 304 311 311 310 310 311 313 312 316 313 314 317 316 318 318 316 319 321 319 319 317 318 319 316 316 317 317 316 316 319 321 318 320 323 327 327 326 327 328 326 329 335 330 327 330 326 327 322 329 326 323 323 329 327 327 327 321 320 319 323
309 307 302 296 298 301 304 306 307 306 305 303 303 300 303 303 301 297 289 293 298 299 300 297 292 294 307 311 311 311 313 311 313 314 315 314 314 315 316 317 320 321 318 319 321 320 321 318 320 317 316 316 318 322 322 323 320 324 324 326 326 324 328 327 329 328 332 332 331 328 332 330 330 325 329 326 331 323 324 328 326 323 319 321 324 319
309 302 300 300 304 305 305 306 308 309 306 302 303 304 303 300 301 298 297 299 295 296 293 293 290 295 309 312 312 313 312 312 314 314 313 315 315 316 316 316 317 318 321 320 321 322 324 319 322 319 316 315 316 321 324 327 324 328 329 326 329 329 326 326 325 325 327 331 331 330 327 327 329 327 325 327 326 326 326 327 326 323 319 319 320 318
297 303 300 296 294 297 300 302 304 308 307 302 302 305 304 304 303 304 302 302 291 297 297 293 287 293 307 312 310 311 312 312 312 313 315 315 316 317 316 315 317 319 319 318 320 321 321 320 317 315 316 316 316 317 325 321 321 322 328 326 326 328 332 331 331 325 327 329 328 329 332 328 328 326 328 326 328 325 326 327 325 326 318 317 319 320
304 302 300 292 289 287 286 289 292 297 300 304 305 303 304 302 304 301 294 301 292 297 300 294 291 301 306 309 309 311 311 313 314 315 315 315 316 315 315 316 318 317 318 318 320 321 321 319 317 317 318 316 317 317 320 320 321 321 323 327 326 324 325 328 329 327 325 329 330 329 328 329 329 325 327 329 329 328 327 328 327 323 319 317 318 318
306 307 304 302 296 292 296 300 306 304 302 299 301 303 302 303 304 303 302 297 293 297 296 299 300 301 303 305 307 310 311 310 312 313 313 314 315 317 318 317 317 319 319 319 320 321 321 321 321 318 321 321 324 332 332 322 319 320 323 329 326 324 327 328 330 326 330 329 323 326 329 329 325 326 327 326 325 328 328 327 325 320 315 316 317 317
307 301 304 304 303 304 304 304 304 304 300 300 300 301 302 301 302 301 296 294 301 297 291 300 304 300 303 306 308 309 311 312 313 313 313 314 315 315 317 317 319 316 318 318 319 318 319 320 320 323 324 323 321 329 324 321 324 329 329 329 328 325 331 331 327 325 325 327 328 324 325 327 325 328 328 326 327 326 326 325 323 322 321 322 320 318
305 298 306 305 304 305 304 304 303 303 302 302 301 301 301 302 301 302 300 301 302 294 293 302 302 301 304 307 310 310 312 312 313 314 315 315 315 315 316 315 315 316 316 316 318 319 319 318 320 322 324 326 327 327 323 319 320 330 329 323 322 325 327 334 324 328 327 326 326 326 326 328 328 328 328 325 324 324 325 327 327 324 320 319 317 317
308 302 305 305 304 304 304 303 303 302 301 300 300 302 301 303 301 302 302 302 302 301 301 302 302 304 307 309 311 312 313 313 313 314 315 313 313 314 314 314 314 314 315 315 316 317 319 318 320 322 324 326 323 324 319 324 320 318 321 323 323 329 330 326 325 327 327 327 326 326 327 325 324 328 329 327 328 326 324 321 319 319 317 317 317 317
304 298 304 305 301 302 304 304 303 302 301 300 301 301 301 301 302 302 301 303 304 303 301 301 300 302 308 313 311 314 315 313 312 311 311 313 313 313 313 313 313 314 314 315 317 317 318 319 319 321 321 322 323 325 322 321 322 319 321 323 322 321 324 320 324 323 322 327 326 327 324 321 327 325 320 320 324 322 317 317 318 318 317 317 318 318
308 300 305 303 294 299 304 303 303 302 302 301 302 302 301 301 300 303 301 303 301 301 302 303 301 301 307 312 312 311 312 311 310 311 312 313 311 312 313 312 312 313 313 313 315 316 317 317 320 322 322 321 321 321 319 321 319 319 319 320 319 322 322 323 325 324 324 323 327 321 319 320 317 317 318 317 316 317 317 318 317 316 315 315 315 316
307 302 300 297 295 294 304 303 303 302 301 298 300 302 304 304 304 305 306 304 305 304 300 296 300 307 309 311 309 308 309 310 310 311 311 311 311 311 311 311 311 312 313 314 314 314 315 316 319 325 324 319 319 319 319 319 319 320 320 320 322 318 323 322 319 319 320 318 319 321 319 316 315 316 317 316 317 318 316 316 314 314 314 314 315 314
309 307 301 305 292 295 302 302 302 298 290 292 307 309 307 304 305 303 303 305 307 306 304 306 307 310 310 309 308 307 308 309 311 315 316 315 314 312 310 311 311 313 315 315 316 315 319 319 319 320 321 320 317 316 317 320 319 319 322 321 317 315 318 314 316 318 318 323 318 316 316 316 316 315 317 317 316 316 315 313 313 313 314 314 313 311
305 304 300 307 296 294 302 302 294 287 291 307 311 312 310 309 307 306 306 307 309 308 307 305 307 308 310 310 310 310 311 312 314 312 313 313 315 313 312 311 313 314 316 318 318 318 319 321 321 322 323 318 318 322 320 316 317 320 318 318 316 315 316 315 314 320 319 317 315 316 317 316 316 315 315 314 314 315 313 312 312 311 312 311 310 308
303 298 300 297 295 298 296 294 286 288 305 309 309 311 311 308 308 306 304 306 308 309 309 306 308 308 309 309 309 312 311 313 313 313 312 312 312 312 312 312 314 315 316 317 319 321 320 317 319 319 319 320 318 316 315 317 318 315 315 314 314 316 315 316 316 314 316 316 316 316 316 316 315 313 313 312 312 311 310 310 311 311 310 308 308 309
309 308 303 297 302 291 294 293 292 304 304 306 306 306 305 304 305 302 294 301 308 309 310 308 309 309 309 310 311 313 313 312 310 310 313 312 314 315 315 314 316 315 316 318 318 317 319 320 319 323 324 322 317 315 317 317 319 317 315 315 314 314 314 317 316 314 317 316 316 316 315 314 313 312 311 311 310 308 309 309 310 310 308 307 307 307
309 304 306 297 294 298 293 291 292 292 290 299 309 311 313 314 313 312 306 302 311 311 312 310 309 310 310 310 311 312 313 308 304 306 311 313 314 314 314 315 316 316 317 317 317 317 319 320 319 319 318 319 319 319 319 321 319 316 320 316 316 319 316 314 314 315 316 315 315 314 314 313 311 310 311 310 308 307 308 309 309 308 308 306 306 304
309 310 308 299 296 295 292 289 289 288 292 306 308 311 313 313 311 311 303 297 308 311 310 311 309 311 311 310 311 312 307 301 302 306 312 314 314 314 313 314 316 316 316 315 315 314 315 319 318 316 319 319 316 317 321 318 318 314 313 316 314 315 315 316 315 315 314 314 313 313 313 313 311 310 310 308 308 308 307 308 307 306 307 306 304 303
305 303 298 297 293 295 293 291 289 293 294 306 310 311 309 312 312 306 292 294 309 312 311 311 310 311 313 314 312 310 305 301 304 307 315 314 314 316 314 313 313 313 313 314 315 317 317 317 316 317 318 317 318 320 318 316 316 316 317 314 315 316 315 316 315 313 314 313 313 313 312 313 312 312 310 306 307 309 309 308 306 305 305 303 301 298
300 299 300 295 296 296 292 293 295 296 309 313 310 311 310 314 308 293 289 299 313 313 313 313 310 313 314 313 312 306 309 312 312 315 316 315 313 313 314 315 313 314 314 314 316 314 314 314 316 315 316 317 318 317 318 315 319 317 317 319 317 315 315 315 315 314 312 312 310 309 309 309 309 310 310 307 307 309 309 307 305 303 302 300 298 297
301 301 298 298 296 295 298 294 294 300 309 312 312 312 312 307 292 292 306 318 317 313 313 312 313 315 316 315 312 312 313 314 315 315 315 314 315 314 312 314 314 315 315 315 317 318 322 315 316 317 316 318 317 316 316 316 318 316 316 315 314 314 314 313 313 313 311 310 307 308 309 308 309 311 311 308 308 309 307 306 303 302 300 297 296 295
301 296 296 296 298 298 294 293 292 289 302 315 313 309 311 297 303 311 314 315 315 314 313 313 314 315 316 314 315 315 315 313 314 314 315 315 315 314 314 315 317 315 314 316 318 315 315 318 320 317 321 318 319 317 316 317 318 316 315 312 314 314 313 312 312 310 310 309 307 308 309 308 308 310 309 308 308 307 306 303 302 301 298 295 294 294
309 297 297 299 304 293 293 291 292 300 311 317 311 300 307 308 316 319 315 312 314 314 313 313 315 317 317 316 315 315 315 314 315 316 315 314 316 316 317 317 318 318 315 315 317 316 314 318 319 319 321 319 320 319 319 318 314 313 312 312 313 314 313 311 310 309 310 310 308 307 309 307 306 308 308 308 308 306 304 302 301 299 296 294 293 292
310 304 309 299 308 297 297 303 309 315 315 315 316 316 316 318 319 317 314 316 314 313 314 314 315 318 320 317 317 315 314 316 315 316 314 315 316 315 314 316 316 317 316 319 316 319 318 319 321 319 318 319 320 319 316 315 313 313 312 314 314 312 311 311 310 310 309 308 307 307 305 307 305 306 307 307 306 304 301 300 300 297 295 294 292 291
312 312 320 312 307 313 314 313 317 314 314 313 314 316 316 319 318 317 314 314 315 316 315 314 315 316 317 319 315 314 314 315 317 315 315 315 314 315 318 315 317 318 319 319 319 320 320 321 320 318 318 317 318 317 316 315 314 312 312 313 312 310 310 310 310 309 307 307 306 305 304 306 304 304 307 306 304 303 300 299 297 295 294 293 291 291
311 312 311 304 309 303 296 312 311 313 315 315 314 316 318 319 318 317 316 314 316 316 313 319 317 318 318 318 316 315 315 315 314 314 315 314 314 315 316 316 319 320 319 318 320 320 320 318 317 316 315 314 315 314 314 315 314 314 313 312 311 310 309 308 310 309 308 307 304 304 305 307 303 303 305 304 303 302 298 297 296 296 294 292 291 290
305 315 308 307 306 303 302 310 313 315 316 317 315 314 315 316 318 318 319 318 319 321 317 319 320 317 317 316 318 316 315 316 314 314 313 313 315 314 315 316 319 320 320 320 321 321 319 317 315 314 313 312 313 313 313 313 312 313 313 310 310 310 309 309 309 308 307 307 305 303 303 305 302 303 302 301 300 299 297 297 296 294 292 291 290 289
310 311 301 309 306 307 309 310 311 315 314 314 315 316 317 317 316 318 317 317 318 318 317 317 319 316 317 317 319 319 315 315 314 315 313 313 316 315 316 318 319 320 319 320 321 319 316 315 313 313 313 312 313 313 312 312 312 313 314 311 309 310 308 309 307 308 307 306 304 304 304 305 303 301 301 299 298 297 296 295 296 294 293 293 292 292
311 306 310 308 303 300 302 307 313 303 303 311 315 316 316 319 319 318 318 315 316 317 316 315 315 320 318 320 319 316 315 315 317 316 314 314 314 317 319 319 319 319 319 320 319 318 317 316 314 313 312 311 312 311 310 311 310 311 309 308 308 310 309 308 307 306 304 302 302 303 303 304 301 300 298 296 297 295 293 291 292 295 293 291 291 289
309 312 309 300 301 301 309 310 319 317 315 316 316 318 321 319 320 318 316 316 316 318 317 317 316 317 317 319 319 318 318 318 318 317 317 316 317 321 319 319 318 318 317 318 316 315 315 314 314 313 312 311 311 310 310 310 309 309 309 308 308 308 306 305 304 302 301 301 301 301 302 302 300 299 296 296 297 297 294 292 292 290 291 291 290 289
Wind_Speed
3 1 3 5 4 8 10 3 2 7 18 12 10 4 3 8 6 9 6 4 4 6 8 9 11 12 11 11 11 10 10 10 10 9 8 8 7 7 8 9 10 10 10 10 10 10 10 11 9 7 6 7 8 8 8 7 8 8 8 8 8 7 8 7 6 7 7 7 8 6 8 5 5 4 4 5 5 4 5 6 6 6 7 6 5 5
7 6 7 11 8 12 11 6 8 6 8 13 9 5 9 9 7 7 6 7 5 3 8 10 11 10 11 11 10 10 10 10 10 9 11 8 7 5 10 9 10 9 9 10 8 9 8 8 9 8 6 7 7 7 7 7 7 8 8 8 7 5 5 5 4 5 4 4 4 4 4 6 5 4 3 4 2 4 5 6 5 6 6 8 6 7
4 6 4 6 7 11 13 5 4 8 7 5 4 6 9 6 8 4 7 6 5 5 5 8 9 9 10 10 9 10 9 8 6 7 9 9 10 8 8 9 9 9 9 8 8 8 9 10 10 7 6 6 7 7 7 7 7 7 7 6 6 6 6 6 7 4 3 2 3 3 4 5 5 5 7 2 2 3 3 5 6 5 5 7 7 7
8 2 0 6 6 10 5 1 5 7 7 4 4 4 3 6 4 1 6 7 5 4 8 7 5 8 9 9 8 9 8 7 6 5 6 6 8 8 8 7 8 9 8 9 8 8 7 8 7 7 7 5 5 5 6 5 6 5 5 5 5 5 5 5 6 7 7 7 8 5 3 5 5 5 6 9 5 7 6 5 4 6 4 5 6 7
5 8 9 14 18 14 8 4 4 5 2 4 2 6 4 9 5 7 9 9 6 7 8 9 8 4 2 9 7 8 6 10 8 7 7 7 7 8 8 8 8 8 8 8 8 7 7 7 7 6 6 6 5 6 5 4 3 5 7 6 6 5 4 4 5 6 5 6 4 6 5 3 4 4 2 5 5 3 3 5 2 4 4 5 5 5
9 3 4 5 4 5 5 3 3 6 2 1 7 5 4 10 10 8 10 11 3 4 9 10 7 5 10 10 10 8 7 8 9 9 9 8 9 9 8 9 7 8 7 8 8 7 7 7 6 6 6 6 6 4 5 4 5 5 5 6 5 4 3 6 7 6 5 4 4 3 4 5 4 3 2 2 1 5 1 2 3 2 3 4 4 4
3 5 5 7 3 7 4 4 5 11 5 2 4 8 7 4 6 6 11 10 3 2 6 10 2 4 6 7 7 9 9 9 9 9 10 8 7 8 8 9 7 8 8 6 8 8 8 7 7 6 5 5 6 6 4 4 4 8 6 6 6 5 5 4 6 5 4 5 4 5 5 4 2 6 2 3 4 3 6 3 5 4 5 5 4 4
6 5 2 4 4 4 5 4 3 2 6 5 6 6 5 4 5 5 8 8 5 11 8 7 4 3 4 4 9 8 8 8 9 10 10 9 9 8 7 7 9 7 8 8 8 8 7 7 6 7 6 6 5 4 6 2 4 6 6 4 6 5 4 5 6 5 3 4 3 3 5 5 6 3 5 3 3 2 5 4 5 5 3 5 5 5
7 3 4 3 1 9 5 6 4 1 3 3 3 4 4 5 1 6 3 2 1 1 4 4 9 5 2 3 2 8 8 9 10 10 10 9 9 8 7 8 7 9 8 8 8 8 6 7 7 6 8 7 6 6 3 4 6 4 4 4 4 5 4 3 4 3 5 3 3 4 4 3 3 5 3 4 5 3 5 2 4 3 3 3 3 4
4 6 5 6 7 1 4 3 5 4 5 7 6 4 1 2 4 2 4 3 1 1 1 6 7 3 1 2 4 10 10 11 11 10 10 11 10 10 9 9 7 7 8 7 10 7 7 7 6 7 7 7 7 4 5 4 4 4 2 4 4 5 4 3 3 3 4 4 2 4 3 3 3 4 2 4 4 4 5 3 4 2 3 4 4 2
5 4 3 5 7 6 3 5 4 2 3 4 3 3 3 4 3 2 5 3 3 0 5 11 9 5 1 3 4 5 8 10 10 10 10 12 11 10 11 11 10 8 7 8 10 8 8 7 8 8 7 7 6 4 5 3 6 3 2 3 5 3 4 4 3 3 4 2 4 3 5 4 4 5 5 4 3 4 4 4 4 3 4 3 4 2
7 7 4 5 4 4 5 4 4 0 1 7 2 3 0 2 1 4 3 1 1 2 2 9 9 12 2 2 7 10 10 11 11 14 11 13 14 12 11 10 13 12 9 9 11 10 9 8 8 8 8 7 6 6 3 4 5 4 3 3 3 3 4 3 3 3 3 3 4 4 4 5 5 5 5 5 4 5 5 4 4 4 4 3 4 3
5 5 2 6 3 11 6 5 6 4 4 2 7 6 3 0 4 0 2 2 5 0 4 7 8 2 3 2 7 14 12 11 13 12 14 15 15 14 13 12 10 8 8 8 10 11 9 8 8 8 8 7 7 6 5 4 4 3 4 3 3 3 5 3 2 2 2 3 4 3 4 4 4 5 5 5 5 3 4 4 3 4 4 4 4 3
3 4 6 5 5 7 4 6 6 4 5 5 6 2 2 2 2 1 3 4 4 4 3 6 13 3 1 2 1 6 11 6 9 12 13 13 15 15 14 12 9 9 8 8 9 11 10 9 9 8 8 9 5 7 4 5 2 2 4 2 1 5 2 1 2 2 3 2 3 2 2 3 3 3 3 4 4 4 3 3 3 3 3 4 3 4
1 1 4 6 2 3 5 3 5 2 6 6 7 3 1 1 2 3 2 1 2 3 6 3 4 3 4 2 6 11 2 10 10 14 10 11 14 14 13 12 11 11 10 8 9 12 10 9 9 8 7 6 8 6 5 5 5 3 2 3 2 2 2 2 2 1 2 3 2 2 2 3 3 2 2 3 2 2 2 2 3 2 2 3 3 4
3 5 6 5 5 7 2 6 6 6 2 3 2 4 2 2 6 4 2 1 3 3 3 3 3 6 1 4 2 4 6 6 13 15 15 15 14 13 11 10 11 10 9 8 9 13 11 9 9 6 6 6 6 7 4 6 4 4 5 4 3 2 1 1 3 1 1 5 1 1 2 3 3 1 2 2 2 2 0 1 2 2 3 3 2 2
6 5 3 6 1 3 7 7 5 5 2 2 1 1 4 5 3 3 1 5 4 4 1 0 6 7 3 4 3 2 4 7 8 11 10 17 14 14 11 10 11 10 8 8 11 13 11 11 9 8 7 6 9 7 8 5 6 3 2 3 2 2 2 3 3 5 3 4 2 1 1 2 2 0 1 2 1 1 1 1 0 1 2 2 2 3
5 5 3 2 7 3 2 3 5 4 2 4 3 1 6 4 5 3 1 1 2 3 1 7 5 6 2 1 7 10 4 7 8 9 10 14 16 14 13 11 10 9 10 9 13 13 13 11 11 9 8 7 9 7 8 6 4 6 3 4 4 7 4 3 1 1 2 4 1 1 1 3 2 2 5 2 4 4 3 0 1 1 2 1 2 2
3 5 5 1 4 9 4 4 7 8 9 6 2 2 5 0 2 3 1 1 2 2 1 6 9 4 4 3 5 6 5 6 8 10 10 10 12 10 15 14 14 14 9 8 9 12 10 9 9 6 9 8 6 5 7 8 6 6 5 6 4 1 2 2 2 0 0 1 2 2 3 1 2 2 2 2 3 2 4 4 2 3 2 1 3 2
2 3 4 4 5 8 5 3 1 3 7 6 4 6 4 3 4 3 2 3 3 3 1 4 3 2 3 2 6 4 5 7 7 9 11 11 11 9 9 12 11 9 7 9 8 12 10 11 9 9 8 8 9 6 7 9 6 7 8 6 2 2 1 1 1 1 3 1 1 1 2 2 3 2 1 2 3 4 4 4 4 3 1 1 3 3
1 2 2 5 2 2 4 3 5 8 5 6 5 3 5 2 4 3 2 3 5 4 4 2 2 3 3 1 8 11 4 5 6 7 7 7 8 9 8 9 8 9 8 7 8 7 11 11 9 8 8 8 10 7 3 9 8 7 8 4 5 3 2 2 2 2 3 2 2 1 2 2 2 1 0 1 1 1 1 2 2 2 2 4 3 3
1 3 2 1 4 3 2 4 7 7 9 6 5 6 6 3 4 1 2 3 5 2 2 2 1 3 5 2 7 8 7 4 3 6 7 4 9 8 7 7 7 7 8 5 6 4 6 11 9 8 7 9 7 7 8 7 6 8 6 5 4 4 3 2 2 4 3 1 3 2 2 1 3 2 1 0 1 1 1 2 2 2 4 4 5 3
2 3 3 2 4 4 9 7 6 5 4 7 5 7 6 3 5 4 3 2 5 1 4 3 4 1 1 6 10 9 10 5 5 5 8 7 8 5 4 8 6 6 7 7 5 7 4 10 6 9 11 8 5 3 6 5 6 3 6 6 5 5 2 2 2 3 1 1 2 3 1 2 1 2 1 2 1 1 1 1 2 3 6 4 2 4
1 4 3 6 2 4 1 4 4 4 4 5 6 6 2 4 8 6 4 5 4 6 4 1 1 2 3 0 7 6 7 2 1 10 6 10 4 10 7 10 8 6 7 6 6 6 3 9 5 6 8 10 6 5 5 4 3 2 2 2 2 2 4 4 4 5 3 2 1 1 3 1 1 2 1 2 1 1 0 0 2 3 5 4 4 4
4 3 3 5 4 4 3 3 3 2 3 3 4 3 4 5 4 4 5 2 3 6 9 6 1 2 4 4 6 6 6 3 7 8 7 10 6 11 8 8 7 7 7 8 7 6 6 7 10 7 8 7 6 7 5 7 6 4 3 4 2 2 1 1 2 4 2 1 3 2 1 2 2 1 1 2 2 2 1 2 3 2 4 5 4 3
3 2 4 1 4 4 2 2 1 3 5 2 4 7 5 5 8 3 1 3 3 4 7 3 3 1 6 4 3 5 12 8 6 6 5 8 7 7 8 7 7 8 6 8 7 6 6 7 6 8 8 9 7 7 8 6 7 6 4 5 6 5 4 2 1 3 1 1 1 1 1 2 1 1 0 1 1 1 1 2 2 3 4 4 4 4
4 3 4 2 7 5 10 8 2 3 5 4 3 4 5 5 5 4 4 3 3 4 3 3 5 6 5 7 4 7 7 6 7 6 6 7 6 6 6 7 7 6 6 7 6 7 5 6 6 6 5 4 3 1 1 3 7 6 5 3 4 5 4 3 2 0 2 2 4 2 1 1 1 1 1 0 0 1 1 2 2 4 5 5 5 4
4 3 2 2 2 8 4 3 3 4 8 6 7 3 4 4 3 4 3 4 5 6 2 2 5 4 3 2 5 4 6 8 6 6 6 6 7 5 6 7 8 7 6 6 6 8 9 8 7 5 4 4 4 2 2 2 1 1 1 2 2 3 2 1 3 1 1 2 2 1 3 2 1 1 1 2 1 2 2 3 3 3 3 3 4 6
5 3 3 1 4 2 4 5 4 5 7 4 3 2 3 1 2 3 4 7 6 3 1 3 3 4 6 5 3 5 6 5 6 6 5 7 6 5 7 7 7 7 8 8 9 9 8 10 8 6 4 3 3 2 1 3 2 2 2 3 5 3 2 1 5 1 2 1 1 2 0 2 3 3 2 2 2 3 2 2 2 3 4 5 6 7
3 1 2 3 3 1 2 2 3 6 2 5 3 3 1 2 3 4 5 6 6 5 5 5 1 5 2 7 5 6 5 5 5 6 6 8 7 6 6 5 6 8 10 10 10 9 10 9 9 8 6 3 3 2 3 2 4 7 6 3 2 2 1 6 4 1 1 1 2 2 1 2 3 2 1 1 0 1 3 4 5 5 6 7 7 7
2 1 2 7 6 5 5 1 3 6 4 6 5 1 3 1 2 7 2 2 2 3 2 1 1 4 6 4 7 5 4 6 7 5 6 6 8 8 7 8 9 9 11 12 8 10 9 9 9 10 10 7 4 3 3 5 3 5 4 3 4 2 3 3 4 3 3 1 2 2 2 3 1 2 3 4 3 3 6 6 6 6 7 6 6 6
1 2 2 4 2 3 6 2 3 4 6 6 6 4 4 6 4 2 1 5 5 1 2 0 4 5 6 7 6 5 4 7 6 5 5 4 6 8 6 3 2 3 6 1 12 9 8 7 4 4 6 6 7 6 7 6 7 2 4 7 1 4 5 6 2 2 1 1 1 2 2 3 4 4 5 7 7 6 6 5 6 7 7 6 6 6
5 4 3 1 3 3 8 3 5 4 4 6 7 7 5 4 2 4 2 4 2 1 3 1 7 5 8 7 6 5 3 6 7 4 6 4 9 7 5 0 2 3 3 6 9 3 3 4 4 5 6 3 4 6 2 6 6 5 4 4 3 5 2 1 5 1 2 4 1 2 4 4 6 6 6 6 5 6 6 7 8 7 7 7 6 6
4 4 4 3 3 0 6 4 2 4 4 0 4 5 2 2 3 4 4 7 6 3 4 1 2 7 5 6 7 7 9 6 5 4 3 3 4 1 6 3 4 6 6 4 4 6 12 12 11 10 10 11 11 12 10 8 8 6 4 4 6 6 4 1 2 2 2 1 2 6 5 6 7 6 5 6 7 7 7 8 8 7 6 5 6 7
4 4 4 5 3 3 4 4 3 3 2 5 3 4 2 3 4 1 5 5 4 6 3 3 4 5 6 4 3 9 6 5 6 9 6 6 6 5 4 5 6 5 6 11 13 13 11 10 9 8 6 7 8 6 6 7 6 5 5 5 6 4 4 5 4 1 2 5 6 5 6 6 6 8 8 8 7 6 8 8 6 7 5 6 7 7
2 3 2 3 3 0 2 2 2 1 6 7 5 4 3 2 2 2 5 5 5 4 6 5 1 6 3 4 7 9 7 10 7 5 7 6 4 5 6 7 7 7 9 7 7 7 8 10 9 7 6 5 6 6 7 5 4 5 5 4 4 6 6 3 3 7 5 4 6 6 5 6 8 8 7 7 6 8 8 7 6 6 7 7 6 6
5 5 1 3 3 3 1 3 3 4 6 9 6 5 3 2 4 4 3 5 7 8 5 4 3 7 5 5 3 5 8 6 3 6 8 6 6 7 7 8 10 10 9 9 9 9 8 7 7 4 4 5 7 8 5 4 2 4 4 4 3 7 6 4 5 4 6 6 5 7 9 8 8 7 7 7 7 8 6 6 6 6 7 6 6 5
3 6 2 2 1 2 3 4 3 4 4 4 4 6 3 4 4 2 3 6 3 6 7 5 5 8 6 5 5 4 5 4 6 6 9 8 6 7 8 9 9 10 11 11 10 8 7 6 6 7 7 6 5 5 4 3 3 5 2 2 1 1 4 5 6 6 7 6 7 8 7 8 8 8 7 6 8 7 6 5 5 6 6 6 6 7
2 3 5 3 1 2 2 3 2 3 2 6 8 6 4 3 4 1 3 8 8 8 8 7 6 7 6 7 6 5 4 6 7 7 8 9 8 8 8 9 11 11 10 10 11 10 9 6 7 8 6 5 6 4 2 3 3 5 3 2 5 6 7 7 5 7 8 7 7 7 7 7 8 7 6 7 6 5 5 5 6 6 5 5 7 7
3 4 2 3 3 3 3 2 3 1 1 6 8 7 6 5 3 2 4 4 5 8 8 6 4 7 7 5 7 6 6 4 10 10 8 9 8 6 9 11 11 11 12 12 11 8 7 7 9 8 7 7 5 2 4 4 2 5 4 4 3 6 5 5 6 7 7 8 7 6 6 6 6 5 5 6 5 4 4 4 5 6 6 7 7 9
5 3 3 4 4 3 4 3 4 1 5 8 8 8 7 4 2 2 1 5 4 7 5 4 2 5 8 6 6 7 4 5 9 10 8 9 9 9 10 9 10 12 12 11 9 7 8 8 6 6 9 6 3 2 2 2 1 2 4 7 7 8 7 6 7 7 7 7 7 7 7 6 6 4 5 6 4 3 3 5 5 6 7 8 8 8
6 4 3 4 4 5 5 4 4 4 4 8 6 6 6 4 2 0 4 2 4 5 5 2 2 4 7 6 5 2 10 11 11 10 10 9 8 8 9 8 10 11 10 9 6 4 0 7 6 5 6 5 2 3 6 1 5 7 10 8 8 8 8 7 7 6 7 8 9 7 6 6 5 3 5 4 4 3 4 6 7 6 8 8 8 8
3 3 4 4 4 4 3 4 3 2 2 5 7 6 3 1 3 5 5 5 3 5 2 3 3 5 8 6 10 12 9 11 10 10 9 9 8 8 8 7 11 11 9 6 4 5 3 2 2 7 4 3 1 4 6 3 2 7 9 9 8 7 8 8 6 7 7 7 8 5 5 6 5 4 5 4 4 4 5 6 6 7 9 9 8 7
5 4 3 5 5 3 3 4 1 3 9 7 8 2 6 1 5 3 1 4 5 3 4 3 3 5 6 7 11 9 10 9 9 8 9 8 7 7 7 9 10 9 8 7 6 6 3 2 8 7 6 7 5 5 7 11 12 9 9 8 8 6 7 7 7 7 6 6 6 5 4 6 5 4 5 4 3 4 6 7 6 7 8 8 7 6
6 3 3 2 4 3 2 3 4 6 9 8 4 4 4 5 5 1 1 3 3 4 1 3 5 4 4 6 9 9 8 8 8 9 8 8 7 7 8 8 7 8 7 6 9 5 1 7 9 8 7 5 8 9 10 9 10 10 8 6 6 7 7 6 6 5 5 6 6 5 4 6 5 4 4 4 4 5 7 6 6 6 7 7 7 6
2 1 3 3 5 1 5 3 7 7 7 8 4 1 1 4 6 2 3 3 3 4 2 4 8 7 5 6 8 9 8 7 6 7 7 9 9 10 7 8 7 6 7 10 7 5 7 9 9 8 9 9 8 8 8 8 7 9 7 6 7 7 7 6 5 5 6 5 5 5 5 5 6 5 4 5 5 5 6 5 6 6 6 6 6 6
5 7 5 5 3 2 2 5 7 6 8 7 6 4 3 2 5 4 3 3 1 6 1 8 7 7 6 6 6 7 8 10 7 6 8 7 8 9 7 9 7 5 10 9 8 8 9 9 9 9 9 9 7 7 7 7 7 6 7 6 6 7 7 6 5 5 4 5 5 5 4 4 4 4 3 5 4 4 6 5 6 6 6 6 6 5
5 9 6 6 7 5 5 5 3 3 3 5 5 5 7 6 6 6 2 3 0 5 3 7 7 7 5 6 6 8 9 10 8 8 8 9 7 11 9 9 8 9 10 9 8 9 9 9 10 10 10 9 7 7 7 7 7 6 6 7 7 6 6 5 3 4 4 5 5 4 4 3 6 5 4 5 5 5 5 4 6 7 6 5 5 5
7 2 2 1 4 5 6 9 6 6 7 8 8 7 4 7 7 7 6 5 4 5 5 5 6 8 7 6 5 5 10 11 9 8 9 11 5 7 7 10 11 11 10 9 9 10 10 10 10 10 10 9 8 7 7 7 5 5 5 5 6 5 4 4 5 5 5 4 5 4 4 3 5 4 4 5 6 7 6 5 5 7 6 5 4 4
4 6 5 4 5 4 5 5 3 5 5 8 10 9 6 5 8 9 8 7 7 7 6 6 7 5 9 6 7 6 7 10 9 11 11 8 10 9 9 14 12 12 10 10 9 10 10 10 11 10 10 9 7 7 7 6 6 6 6 6 6 5 4 4 5 5 5 4 4 3 3 3 4 4 4 4 3 7 6 9 10 6 6 6 8 13
7 5 5 5 4 3 3 2 8 8 4 2 5 2 7 6 5 7 10 9 8 8 8 7 7 7 8 7 7 7 6 6 8 12 8 4 9 13 17 14 13 11 12 12 12 12 11 11 11 11 10 9 8 8 7 6 6 6 7 7 6 6 6 6 5 5 5 4 3 3 3 3 4 4 4 4 3 3 6 5 5 8 10 13 11 12
Wind_Direction
217 277 242 258 251 260 257 157 356 85 115 146 176 208 85 99 83 119 135 157 201 160 136 147 145 147 148 153 156 152 145 144 151 151 139 128 116 124 122 119 119 118 116 106 106 109 120 119 100 100 84 73 69 63 59 65 55 52 48 50 46 41 33 23 30 31 16 16 11 13 21 358 75 23 33 50 33 33 36 12 25 9 351 357 12 17
139 192 236 247 244 233 244 165 211 74 133 149 132 141 45 348 113 141 142 162 188 216 136 152 144 146 148 153 157 157 161 155 155 151 137 140 133 135 125 121 119 108 109 115 110 111 100 90 94 84 86 87 78 71 72 64 67 58 56 49 43 43 42 44 54 49 39 27 18 9 34 6 37 35 14 56 31 39 51 16 18 16 0 353 13 3
277 278 220 252 245 197 225 145 148 101 99 95 93 93 126 159 134 112 142 154 168 169 150 149 146 145 155 151 164 158 164 151 150 151 141 148 136 139 127 127 121 125 113 103 98 95 93 94 92 92 87 96 93 88 70 69 69 74 66 58 51 42 43 34 24 43 42 44 43 44 55 33 13 27 358 36 16 73 62 69 10 19 8 4 2 14
229 203 159 224 224 248 267 33 141 117 117 99 128 94 80 109 139 186 190 165 175 203 152 126 140 138 147 151 164 161 172 143 154 152 153 140 132 135 134 130 125 122 123 115 110 91 96 103 106 104 102 98 116 127 109 92 84 82 79 70 66 62 58 55 51 36 24 25 21 20 50 88 56 19 13 349 37 30 12 47 51 11 4 21 2 9
283 239 221 192 213 237 239 158 205 150 79 113 132 163 180 150 173 187 147 182 186 143 158 155 138 92 213 165 164 167 178 148 157 167 154 141 145 145 131 128 142 129 124 123 109 121 113 112 110 116 129 126 87 78 96 116 139 92 91 88 68 53 41 59 69 68 50 24 36 16 13 34 87 64 30 16 2 69 35 5 351 66 351 24 18 358
288 31 13 257 224 214 260 224 128 121 107 265 139 190 169 154 177 178 156 145 62 173 193 144 156 182 185 174 172 160 185 170 167 168 165 162 156 138 146 139 155 137 129 131 134 120 113 109 129 130 112 99 105 94 70 65 80 100 81 61 86 101 82 62 50 46 42 55 28 38 35 15 8 105 64 81 4 352 56 111 323 64 47 39 11 10
314 71 283 303 226 222 227 104 125 130 108 273 171 184 183 145 156 146 116 75 64 257 167 192 276 137 166 176 170 175 173 176 168 181 170 168 168 155 164 144 141 150 144 138 122 129 125 127 119 126 127 114 105 116 138 128 96 87 90 93 58 47 14 59 85 59 55 44 33 30 23 12 13 3 144 80 16 66 348 45 30 349 36 1 35 350
299 116 221 133 269 255 205 47 325 186 150 154 216 188 177 146 141 181 132 142 172 167 242 186 105 137 171 182 189 183 190 182 174 186 183 172 178 165 156 154 149 166 155 149 144 123 130 138 137 124 120 116 121 124 102 118 93 85 82 89 114 95 84 41 18 57 54 87 56 41 45 23 358 4 3 23 25 32 20 22 29 357 32 359 42 354
313 27 255 216 42 24 18 214 193 315 324 29 200 224 202 162 153 164 152 145 331 271 165 131 140 121 218 244 240 193 180 203 191 193 183 193 168 175 165 158 171 152 159 158 135 134 148 142 131 140 115 116 138 110 127 86 93 122 119 136 106 99 87 87 77 67 34 34 52 54 48 35 13 347 22 344 37 353 27 19 27 20 360 354 45 14
109 337 360 338 49 252 205 108 32 30 310 142 197 248 137 137 202 183 171 163 257 105 224 269 248 275 159 185 187 189 201 196 193 198 191 189 183 174 169 152 174 158 176 152 135 142 143 133 143 114 123 129 90 106 103 133 129 101 115 74 96 111 95 70 85 62 69 37 23 46 50 33 34 356 14 9 30 342 62 5 24 18 359 1 18 32
50 62 326 351 23 4 31 62 344 65 43 75 218 192 198 201 208 140 124 130 58 321 227 211 204 216 163 180 196 184 208 199 178 194 192 179 181 178 166 164 165 182 188 151 140 134 136 140 125 137 124 106 120 122 149 152 120 119 118 84 66 102 126 130 97 76 59 59 24 66 27 24 25 31 351 32 25 352 38 13 34 356 16 3 3 8
171 154 189 63 281 121 306 130 135 15 120 234 130 284 263 247 230 200 96 141 157 257 152 185 192 206 265 221 192 202 223 195 194 177 184 180 176 183 161 171 171 184 178 158 146 146 142 137 142 133 124 135 135 143 164 152 123 166 130 127 147 88 100 103 95 83 82 21 64 20 43 15 34 32 6 21 26 16 23 353 33 355 22 9 342 22
124 53 83 131 30 339 37 299 128 171 113 206 79 348 281 283 213 336 63 15 249 229 180 167 140 280 78 204 168 185 217 195 182 178 181 181 182 173 164 174 183 166 191 168 145 138 144 157 149 136 143 140 155 153 175 142 146 131 147 160 161 129 105 108 103 86 95 96 57 25 50 36 21 42 17 32 3 39 11 354 19 12 14 1 347 7
350 109 191 93 199 61 15 37 349 61 358 41 69 257 281 287 299 254 128 207 13 355 297 174 161 165 78 62 40 173 202 198 156 169 174 184 164 166 174 171 167 166 196 179 162 147 153 162 151 152 154 159 165 155 170 142 172 158 136 212 172 128 121 96 97 84 74 77 99 58 50 50 34 45 30 48 20 7 10 358 352 35 354 7 350 1
284 247 21 37 15 83 59 43 118 342 33 340 109 245 243 238 333 352 16 311 299 261 274 168 204 130 218 119 156 251 206 143 141 137 163 166 155 166 164 157 160 172 194 206 160 148 160 144 152 154 182 152 166 161 165 148 176 177 148 149 169 189 141 142 102 50 106 98 78 86 80 29 55 17 82 66 57 352 356 359 351 30 348 12 10 342
237 334 174 40 133 239 143 125 116 93 15 231 90 280 289 207 224 321 61 185 217 235 241 233 77 176 110 186 303 277 144 133 132 149 158 151 159 154 147 159 165 173 193 212 167 141 134 146 141 155 178 153 182 139 188 167 184 171 176 190 173 58 131 39 115 225 150 100 16 121 82 95 65 349 89 87 97 327 178 73 337 39 339 20 6 318
131 355 176 120 186 289 69 118 150 160 71 205 92 233 281 340 142 222 205 217 232 260 44 261 96 84 115 215 264 212 175 145 135 145 155 140 157 152 151 164 167 172 197 210 115 132 139 149 147 157 176 209 147 178 173 198 168 154 236 192 179 186 159 155 183 174 213 129 141 89 184 96 122 245 73 123 108 11 36 67 95 62 30 359 341 300
141 232 211 187 175 106 97 6 138 158 130 145 268 315 272 275 17 40 186 269 282 310 98 58 103 66 314 259 305 301 195 159 142 149 158 155 164 159 151 176 161 176 204 156 135 143 149 151 153 164 179 216 155 184 158 178 167 158 205 246 202 187 210 140 257 61 73 98 313 147 268 118 53 37 7 47 53 16 301 141 105 61 60 338 309 303
296 196 182 237 75 122 159 221 195 179 202 227 250 273 244 309 245 4 331 116 303 323 8 114 147 138 144 183 232 241 215 174 164 162 155 154 153 157 157 168 168 177 166 164 155 147 149 145 147 175 168 210 131 185 177 163 186 165 173 211 223 279 116 27 79 294 48 302 195 226 125 94 97 76 48 19 40 25 320 1 37 75 14 317 304 286
98 309 131 119 266 121 214 207 166 264 189 239 235 236 279 116 131 206 191 287 212 322 303 78 330 93 236 186 249 207 236 171 183 170 153 165 162 159 164 153 158 155 152 161 177 151 151 146 154 172 176 197 159 184 183 159 183 168 169 219 282 98 83 155 1 4 328 294 277 4 117 98 60 62 48 70 41 1 338 350 350 349 323 297 265 272
353 81 316 133 98 234 218 194 157 198 203 223 253 138 244 206 152 265 289 31 313 308 11 6 126 122 152 117 19 320 224 169 181 153 156 155 151 151 142 145 162 163 168 176 181 180 154 151 158 167 175 225 159 185 144 160 182 178 172 196 168 173 160 208 178 241 216 249 286 337 43 45 107 89 50 133 116 243 291 321 346 329 322 282 266 249
256 194 290 237 228 255 23 146 20 349 354 335 342 338 27 355 57 57 248 191 262 349 143 237 103 125 87 122 106 266 289 192 146 175 90 157 141 147 161 156 180 158 146 158 150 214 165 151 171 163 163 239 190 174 182 187 187 172 183 178 150 150 183 203 213 216 243 203 173 148 221 187 126 193 251 324 238 26 310 351 330 326 294 281 275 265
8 1 270 239 203 280 73 69 53 319 314 298 320 321 7 321 314 293 332 49 312 111 227 158 151 114 44 122 173 188 271 126 213 98 156 153 147 125 164 123 107 126 153 151 180 174 226 149 163 175 175 215 195 183 189 172 167 166 164 159 162 180 181 175 222 258 261 205 265 146 157 188 157 62 51 309 220 223 43 328 348 299 291 282 308 302
142 257 281 273 258 135 139 128 98 357 298 270 220 216 299 353 25 331 336 338 330 314 282 30 72 96 101 201 155 224 153 342 213 145 137 113 207 135 195 138 158 176 138 153 177 141 221 145 173 205 188 188 190 187 174 140 145 109 121 130 182 192 171 192 203 239 227 229 222 128 137 173 198 160 218 285 48 305 95 247 254 278 285 318 310 304
261 144 295 353 295 247 194 148 165 52 293 265 72 52 354 331 286 11 319 253 264 11 357 327 75 160 165 211 223 160 87 142 187 130 170 142 179 142 172 158 157 148 155 164 163 162 188 203 174 181 231 218 180 188 165 168 173 164 174 179 173 199 174 207 228 197 224 266 25 339 104 192 185 161 179 254 221 218 224 261 270 275 320 305 303 322
230 54 313 281 9 358 310 308 345 344 337 350 351 15 3 343 34 299 295 352 307 39 26 11 67 86 149 211 196 133 133 210 135 147 136 136 134 169 148 163 142 151 164 154 158 180 195 228 208 191 201 216 206 200 167 173 161 177 216 163 176 193 180 208 263 276 188 184 152 261 214 200 260 84 159 235 284 340 330 304 304 315 281 285 307 303
315 3 238 28 143 148 212 261 314 299 292 336 42 313 3 15 2 331 305 293 30 346 56 15 80 184 190 174 197 145 143 144 151 143 157 134 155 146 135 142 163 137 151 170 175 177 190 206 239 215 199 255 321 23 282 166 148 171 202 184 185 195 175 159 142 243 305 152 163 226 69 302 252 167 192 163 23 269 277 281 276 274 300 304 293 306
288 276 287 199 186 183 219 303 5 258 280 307 290 101 35 355 25 327 349 14 354 297 101 157 237 299 109 92 154 138 130 149 150 154 143 139 132 147 135 150 145 164 180 189 191 198 186 195 213 240 220 181 214 283 22 5 44 35 35 41 23 342 22 148 134 79 351 310 82 156 229 179 197 230 181 156 218 244 243 248 265 294 307 314 332 0
292 274 165 301 264 327 314 310 279 320 319 358 5 75 119 37 359 322 16 23 349 17 35 62 346 309 114 177 176 125 133 142 151 152 158 148 164 170 156 165 174 183 199 203 191 190 188 188 190 205 240 187 184 191 60 4 343 10 303 222 223 168 126 109 115 147 238 267 163 208 156 220 209 212 196 177 213 240 259 271 329 359 347 349 5 1
263 275 315 265 323 249 170 234 19 270 182 247 184 180 14 168 79 31 54 29 351 14 16 345 346 61 63 118 120 121 115 132 140 161 157 168 175 170 153 184 201 204 203 206 200 187 185 199 183 180 194 213 207 170 197 167 226 235 227 222 76 28 112 108 125 165 223 237 104 59 30 1 328 343 105 229 184 42 11 10 10 355 3 6 5 349
243 56 13 303 288 199 174 149 250 264 195 254 157 317 175 84 288 80 330 127 49 275 324 199 39 180 76 63 104 109 135 118 111 136 142 152 167 176 176 192 210 222 215 203 197 181 180 188 196 176 173 187 172 136 199 224 231 295 288 40 24 76 68 79 110 165 201 274 17 33 354 289 138 80 40 27 7 42 29 6 354 356 18 10 353 348
239 258 265 262 273 215 163 188 188 277 294 296 309 180 216 135 253 145 313 59 348 12 53 353 226 138 133 120 108 92 165 142 150 184 171 169 188 184 211 218 244 317 352 53 172 182 199 186 161 153 170 180 167 179 220 210 228 204 24 75 352 97 101 98 109 94 25 30 348 353 344 33 24 28 34 19 9 18 16 355 9 23 10 358 352 358
171 257 243 273 267 264 136 207 170 219 272 263 233 217 211 161 334 78 178 118 227 320 282 15 52 87 138 146 148 180 185 177 157 178 90 198 34 64 100 115 353 23 29 20 5 4 80 59 133 108 83 76 214 230 148 91 76 73 89 81 58 75 1 141 99 38 42 21 42 290 60 31 36 24 39 28 9 14 3 26 28 9 360 355 0 3
298 282 272 203 257 106 142 147 128 255 257 17 37 22 138 194 184 235 247 174 151 207 24 83 138 122 132 143 180 138 226 156 173 149 114 43 125 143 57 69 3 42 38 14 347 13 71 73 66 68 68 70 63 68 68 66 72 69 53 59 51 16 86 359 147 83 13 317 27 48 40 25 43 22 24 28 20 11 20 30 13 5 353 359 7 358
207 247 265 276 246 304 123 125 243 248 246 95 74 58 18 355 321 243 281 348 136 165 206 254 130 141 207 171 179 150 216 176 132 109 125 106 95 94 95 79 65 58 68 61 62 71 74 74 82 84 83 83 81 83 97 105 125 134 133 127 123 123 348 42 8 126 90 48 39 25 52 26 21 41 30 23 12 14 31 19 7 355 1 13 4 351
196 219 266 295 294 268 249 195 253 257 117 166 136 133 74 280 101 278 286 264 255 223 157 248 172 151 195 175 231 166 182 101 120 125 108 114 139 142 142 109 123 109 94 88 89 84 94 93 86 87 99 142 131 115 114 121 115 95 61 63 127 179 166 161 75 39 32 34 49 31 26 45 52 42 25 14 12 30 20 10 352 6 20 7 351 332
321 275 230 276 159 274 310 277 279 120 198 150 136 152 199 168 183 219 246 243 234 206 186 202 212 144 173 172 207 55 90 124 177 145 135 160 151 128 130 136 124 114 121 123 107 95 91 113 131 138 122 82 83 82 64 64 76 124 171 181 112 18 50 34 84 79 65 46 45 44 49 46 46 40 19 9 29 24 13 355 8 21 19 353 338 336
222 265 44 245 141 250 283 300 282 234 251 124 99 120 120 97 348 49 289 271 243 158 156 178 221 151 163 169 156 137 124 211 227 168 158 145 142 134 124 121 118 121 119 107 112 117 112 91 91 77 85 90 103 124 133 118 86 254 164 66 39 91 63 68 34 23 60 55 50 58 54 47 42 31 16 19 32 13 4 360 28 27 3 347 340 12
267 301 292 281 277 184 243 262 259 292 59 151 128 128 103 118 186 28 267 267 156 155 152 161 209 142 178 162 158 148 192 231 236 151 134 126 129 125 134 136 128 124 122 129 132 128 129 134 110 119 120 128 111 96 59 68 265 60 0 61 63 31 47 38 43 53 66 61 56 51 57 53 46 26 19 28 24 16 359 22 34 18 350 359 8 13
199 219 221 235 268 273 272 243 273 312 126 136 139 148 151 111 141 223 276 74 138 146 144 148 190 149 162 163 149 187 218 236 101 113 119 135 141 148 129 123 130 141 138 129 119 119 131 137 148 136 140 118 96 103 117 243 159 72 297 52 358 85 74 64 51 59 67 68 58 51 49 56 53 28 37 30 6 28 7 40 34 8 15 17 21 21
197 244 221 257 248 211 177 275 289 122 108 142 140 137 136 149 200 237 289 112 61 95 125 122 202 154 140 161 153 221 196 96 113 119 152 136 137 137 124 132 139 134 129 123 121 143 158 171 160 146 147 129 130 154 107 226 55 39 5 49 63 69 68 68 62 62 61 62 53 42 54 46 44 19 58 28 12 23 17 50 33 22 33 28 28 19
221 201 223 254 261 265 221 243 245 86 108 135 127 128 123 177 210 141 101 120 105 104 84 219 144 154 141 148 167 62 99 119 135 150 131 150 136 130 128 146 143 120 110 109 130 191 171 92 100 99 71 63 60 206 224 302 61 71 77 76 71 67 71 78 75 63 59 60 52 41 51 55 32 10 64 39 11 17 30 53 39 38 43 38 24 11
216 194 234 208 225 240 272 297 314 247 154 150 128 144 160 244 88 138 138 104 167 121 161 138 212 171 139 146 115 121 134 130 146 137 143 121 131 130 147 130 102 106 113 130 158 130 121 146 103 85 70 110 114 346 353 56 352 76 84 82 74 73 69 61 61 67 64 63 55 32 54 59 28 6 62 31 22 24 40 51 40 50 52 38 22 8
100 239 203 236 185 255 214 225 237 58 131 144 162 167 186 42 46 35 58 170 116 154 199 158 222 142 147 153 136 137 128 143 119 141 131 140 129 139 130 117 120 127 132 158 149 111 47 40 74 76 57 43 25 358 39 69 83 89 87 80 85 88 78 67 61 57 60 72 59 24 42 57 27 7 63 27 26 31 54 50 46 56 54 45 25 9
130 243 48 352 28 268 335 63 146 152 144 169 214 54 142 134 148 136 308 57 186 139 130 175 130 123 170 178 130 123 132 130 146 144 147 143 141 145 142 138 146 149 166 138 105 113 117 77 85 88 80 64 60 64 75 76 86 94 93 97 96 85 83 77 72 56 53 54 55 31 18 69 30 15 46 35 29 43 59 50 52 59 57 43 32 12
156 116 60 318 250 275 308 13 85 138 161 171 215 182 191 179 131 142 235 206 233 117 189 168 133 169 157 194 140 145 150 147 139 151 147 137 160 137 158 145 149 172 119 102 111 98 93 98 100 103 95 87 82 82 81 87 87 87 88 83 68 71 71 73 76 69 62 57 52 34 2 63 40 9 39 47 29 47 68 55 58 65 54 48 32 15
215 155 204 224 251 39 260 154 200 184 163 182 220 168 164 157 141 183 186 261 188 125 221 107 157 141 194 154 169 150 162 137 163 162 151 156 182 152 166 148 148 153 114 119 110 119 116 115 114 109 104 98 90 94 99 97 96 91 88 89 91 81 72 62 58 72 70 70 46 30 350 55 52 8 26 59 33 50 61 52 71 67 60 51 36 26
201 145 215 209 250 238 267 282 144 191 175 178 210 208 179 188 190 174 201 226 75 137 184 138 139 156 177 174 173 171 149 149 165 198 154 178 192 162 160 145 140 109 114 125 136 121 122 123 123 120 116 112 113 109 107 101 92 86 85 84 85 94 98 101 88 67 57 76 67 32 1 22 66 36 22 52 37 45 48 53 77 84 70 63 57 44
103 122 265 118 246 255 254 258 247 192 200 211 205 226 228 175 190 177 185 204 194 158 193 163 155 169 169 189 178 179 166 152 193 158 206 168 152 138 162 140 123 125 131 139 129 129 131 132 127 124 119 117 112 105 100 99 101 92 88 87 84 73 70 70 75 79 63 50 70 37 358 23 60 25 34 45 69 63 48 36 74 99 86 93 96 83
206 230 244 229 234 245 267 285 272 231 212 214 209 194 214 194 176 178 179 203 200 191 197 196 172 208 160 193 172 192 203 157 194 139 229 141 163 165 135 127 133 137 137 133 133 130 128 128 130 127 124 122 123 120 119 118 112 106 94 85 77 78 70 59 57 60 58 38 49 42 4 25 50 31 36 41 56 106 66 44 40 81 123 108 90 86
227 250 245 240 235 261 327 259 50 349 319 49 54 169 180 197 193 183 183 194 200 200 199 209 185 208 182 186 168 191 199 225 170 169 215 183 170 129 132 139 141 143 142 137 134 137 135 135 134 131 126 126 128 126 122 114 108 108 108 102 88 71 64 59 61 58 54 31 29 60 9 38 54 46 35 34 21 63 123 119 43 43 101 123 127 122